TimeCST,TemperatureF,Dew PointF,Humidity,Sea Level PressureIn,VisibilityMPH,Wind Direction,Wind SpeedMPH,Gust SpeedMPH,PrecipitationIn,Events,Conditions,WindDirDegrees,DateUTC
12:06 AM,17.6,15.8,93,30.02,1.8,SW,10.4,-,N/A,,Overcast,230,2013-01-02 06:06:00
12:53 AM,18.0,15.1,88,30.08,1.5,WSW,11.5,-,N/A,,Overcast,240,2013-01-02 06:53:00
1:14 AM,17.6,14.0,86,30.00,2.5,SW,5.8,-,N/A,,Overcast,220,2013-01-02 07:14:00
1:42 AM,12.2,8.6,85,30.00,2.5,South,5.8,-,N/A,,Scattered Clouds,190,2013-01-02 07:42:00
1:53 AM,12.9,9.0,84,30.07,2.5,South,8.1,-,N/A,,Clear,180,2013-01-02 07:53:00
2:16 AM,12.2,8.6,85,29.99,3.0,South,5.8,-,N/A,,Haze,180,2013-01-02 08:16:00
3:53 AM,8.1,3.0,80,30.06,5.0,SSW,5.8,-,N/A,,Haze,200,2013-01-02 09:53:00
4:53 AM,9.0,3.0,77,30.04,6.0,SW,4.6,-,N/A,,Haze,220,2013-01-02 10:53:00
5:53 AM,8.1,1.9,76,30.04,5.0,SW,8.1,-,N/A,,Haze,220,2013-01-02 11:53:00
6:53 AM,8.1,3.0,80,30.05,6.0,SW,4.6,-,N/A,,Haze,230,2013-01-02 12:53:00
7:53 AM,10.9,5.0,77,30.05,6.0,WSW,9.2,-,N/A,,Haze,240,2013-01-02 13:53:00
9:20 AM,19.4,12.2,74,29.96,7.0,West,12.7,-,N/A,,Overcast,260,2013-01-02 15:20:00
9:53 AM,19.9,15.1,81,30.04,7.0,West,11.5,-,N/A,,Overcast,270,2013-01-02 15:53:00
10:06 AM,19.4,15.8,86,29.97,7.0,West,11.5,-,N/A,,Overcast,270,2013-01-02 16:06:00
10:53 AM,21.9,18.0,85,30.04,4.0,West,10.4,-,0.00,Snow,Light Snow,270,2013-01-02 16:53:00
11:23 AM,24.8,21.2,86,29.96,8.0,WNW,10.4,-,0.00,,Overcast,290,2013-01-02 17:23:00
11:44 AM,26.6,21.2,80,29.97,10.0,West,12.7,-,0.00,,Overcast,280,2013-01-02 17:44:00
11:53 AM,26.1,21.9,84,30.03,10.0,West,13.8,-,0.00,,Overcast,280,2013-01-02 17:53:00
12:53 PM,28.0,24.1,85,30.02,7.0,West,15.0,-,N/A,,Overcast,280,2013-01-02 18:53:00
1:35 PM,28.4,24.8,86,29.96,9.0,WNW,16.1,-,N/A,,Overcast,300,2013-01-02 19:35:00
1:45 PM,30.2,24.8,80,29.96,9.0,WNW,15.0,-,N/A,,Overcast,300,2013-01-02 19:45:00
1:53 PM,30.0,25.0,82,30.03,9.0,WNW,13.8,-,N/A,,Overcast,300,2013-01-02 19:53:00
2:28 PM,30.2,24.8,80,29.96,10.0,WNW,16.1,-,N/A,,Overcast,300,2013-01-02 20:28:00
2:53 PM,30.0,25.0,82,30.04,10.0,WNW,12.7,-,N/A,,Overcast,300,2013-01-02 20:53:00
3:53 PM,30.0,25.0,82,30.07,10.0,WNW,12.7,-,N/A,,Overcast,290,2013-01-02 21:53:00
4:53 PM,30.0,25.0,82,30.09,10.0,NW,15.0,-,N/A,,Overcast,310,2013-01-02 22:53:00
5:53 PM,28.0,19.9,72,30.12,10.0,NW,13.8,23.0,N/A,,Mostly Cloudy,320,2013-01-02 23:53:00
6:53 PM,27.0,21.0,78,30.14,10.0,NW,4.6,-,N/A,,Overcast,320,2013-01-03 00:53:00
7:34 PM,26.6,21.2,80,30.08,10.0,WNW,6.9,-,N/A,,Overcast,300,2013-01-03 01:34:00
7:53 PM,27.0,21.0,78,30.15,10.0,WNW,5.8,-,N/A,,Overcast,290,2013-01-03 01:53:00
8:07 PM,26.6,21.2,80,30.08,10.0,West,4.6,-,N/A,,Overcast,270,2013-01-03 02:07:00
8:29 PM,26.6,21.2,80,30.08,10.0,West,4.6,-,N/A,,Overcast,270,2013-01-03 02:29:00
8:53 PM,26.1,21.0,81,30.16,10.0,Calm,Calm,-,N/A,,Overcast,0,2013-01-03 02:53:00
9:29 PM,26.6,21.2,80,30.09,10.0,Calm,Calm,-,N/A,,Overcast,0,2013-01-03 03:29:00
9:53 PM,28.0,24.1,85,30.16,10.0,WNW,9.2,-,N/A,,Overcast,290,2013-01-03 03:53:00
10:53 PM,28.9,24.1,82,30.17,10.0,WNW,13.8,-,0.00,,Overcast,290,2013-01-03 04:53:00
11:25 PM,28.4,24.8,86,30.12,5.0,WNW,13.8,-,0.00,Snow,Light Snow,290,2013-01-03 05:25:00
11:53 PM,27.0,21.9,81,30.19,10.0,North,12.7,-,0.00,,Overcast,360,2013-01-03 05:53:00